When you browse on this site, cookies collect data to enhance your experience and personalize the content and advertising you see.
Visit our Privacy Policy to learn more. By continuing to use the site, you agree to this use of cookies and data.
  • In United Kingdom
  • List of Countries
  • For 7 days
  • Water Temperature
  • Satellite Maps
  • Weather Map
  • Weather Widgets
  • user-avatar
    Login

    Hourly Weather Szentendre

    Today, 20 June, Thursday

    Time Temperature Precipitation Wind Pressure Humidity
    00:00 +20°C° 0.1 mm 0 mps 745 mmHg 82%
    01:00 +19°C° 0 mm 0 mps 746 mmHg 82%
    02:00 +19°C° 0 mm 0 mps 745 mmHg 83%
    03:00 +19°C° 0 mm 0 mps 745 mmHg 84%
    04:00 +20°C° 0 mm 1 mps 745 mmHg 85%
    05:00 +21°C° 0 mm 1 mps 745 mmHg 82%
    06:00 +23°C° 0 mm 1 mps 746 mmHg 80%
    07:00 +24°C° 0 mm 1 mps 746 mmHg 77%
    08:00 +25°C° 0.4 mm 1 mps 746 mmHg 72%
    09:00 +27°C° 0.4 mm 1 mps 746 mmHg 67%
    10:00 +27°C° 0.4 mm 0 mps 746 mmHg 61%
    11:00 +27°C° 0.4 mm 0 mps 746 mmHg 58%
    12:00 +30°C° 0.4 mm 1 mps 745 mmHg 55%
    13:00 +30°C° 0.4 mm 1 mps 745 mmHg 52%
    14:00 +30°C° 0.6 mm 1 mps 745 mmHg 55%
    15:00 +29°C° 0.6 mm 1 mps 745 mmHg 59%
    16:00 +28°C° 0.6 mm 1 mps 744 mmHg 62%
    17:00 +27°C° 0.4 mm 1 mps 745 mmHg 65%
    18:00 +25°C° 0.4 mm 0 mps 745 mmHg 69%
    19:00 +24°C° 0.4 mm 0 mps 745 mmHg 72%
    20:00 +23°C° 0.1 mm 0 mps 745 mmHg 73%
    21:00 +22°C° 0.1 mm 0 mps 745 mmHg 74%
    22:00 +21°C° 0.1 mm 0 mps 745 mmHg 75%
    23:00 +23°C° 0.1 mm 1 mps 746 mmHg 78%

    Tomorrow, 21 June, Friday

    Time Temperature Precipitation Wind Pressure Humidity
    00:00 +22°C° 0.1 mm 1 mps 746 mmHg 81%
    01:00 +22°C° 0.1 mm 1 mps 746 mmHg 83%
    02:00 +21°C° 0 mm 1 mps 746 mmHg 85%
    03:00 +21°C° 0 mm 1 mps 746 mmHg 86%
    04:00 +20°C° 0 mm 1 mps 746 mmHg 87%
    05:00 +21°C° 0 mm 1 mps 746 mmHg 84%
    06:00 +22°C° 0 mm 1 mps 747 mmHg 80%
    07:00 +24°C° 0 mm 1 mps 747 mmHg 77%
    08:00 +25°C° 0 mm 2 mps 747 mmHg 71%
    09:00 +27°C° 0 mm 2 mps 747 mmHg 66%
    10:00 +28°C° 0 mm 2 mps 747 mmHg 60%
    11:00 +29°C° 0.1 mm 3 mps 747 mmHg 58%
    12:00 +29°C° 0.1 mm 3 mps 747 mmHg 57%
    13:00 +30°C° 0.1 mm 3 mps 747 mmHg 55%
    14:00 +30°C° 0.5 mm 3 mps 747 mmHg 58%
    15:00 +29°C° 0.5 mm 3 mps 747 mmHg 60%
    16:00 +29°C° 0.5 mm 3 mps 746 mmHg 63%
    17:00 +28°C° 0.1 mm 3 mps 746 mmHg 67%
    18:00 +27°C° 0.1 mm 3 mps 746 mmHg 70%
    19:00 +26°C° 0.1 mm 2 mps 746 mmHg 73%
    20:00 +25°C° 0 mm 2 mps 747 mmHg 75%
    21:00 +24°C° 0 mm 2 mps 747 mmHg 77%
    22:00 +23°C° 0 mm 1 mps 747 mmHg 79%
    23:00 +23°C° 0 mm 1 mps 747 mmHg 81%

    Day after tomorrow, 22 June, Saturday

    Time Temperature Precipitation Wind Pressure Humidity
    00:00 +22°C° 0 mm 1 mps 747 mmHg 83%
    01:00 +22°C° 0 mm 1 mps 747 mmHg 84%
    02:00 +21°C° 0 mm 1 mps 747 mmHg 85%
    03:00 +20°C° 0 mm 2 mps 747 mmHg 86%
    04:00 +20°C° 0 mm 2 mps 747 mmHg 86%
    05:00 +21°C° 0.2 mm 2 mps 748 mmHg 84%
    06:00 +23°C° 0.2 mm 1 mps 748 mmHg 82%
    07:00 +24°C° 0.2 mm 1 mps 748 mmHg 80%
    08:00 +25°C° 0.1 mm 1 mps 748 mmHg 75%
    09:00 +26°C° 0.1 mm 1 mps 748 mmHg 71%
    10:00 +28°C° 0.1 mm 1 mps 748 mmHg 67%
    11:00 +29°C° 0.6 mm 1 mps 748 mmHg 63%
    12:00 +30°C° 0.6 mm 1 mps 748 mmHg 59%
    13:00 +31°C° 0.6 mm 1 mps 748 mmHg 55%
    14:00 +30°C° 2.2 mm 1 mps 747 mmHg 59%
    15:00 +29°C° 2.2 mm 2 mps 747 mmHg 64%
    16:00 +28°C° 2.2 mm 2 mps 746 mmHg 68%
    17:00 +27°C° 0.5 mm 2 mps 746 mmHg 71%
    18:00 +26°C° 0.5 mm 2 mps 746 mmHg 74%
    19:00 +25°C° 0.5 mm 2 mps 746 mmHg 77%
    20:00 +24°C° 0.2 mm 2 mps 746 mmHg 79%
    21:00 +23°C° 0.2 mm 2 mps 746 mmHg 82%
    22:00 +21°C° 0.2 mm 2 mps 746 mmHg 84%
    23:00 +21°C° 0.5 mm 2 mps 746 mmHg 85%

    23 June, Sunday

    Time Temperature Precipitation Wind Pressure Humidity
    00:00 +21°C° 0.5 mm 2 mps 746 mmHg 86%
    01:00 +21°C° 0.5 mm 1 mps 746 mmHg 87%
    02:00 +21°C° 0.2 mm 1 mps 746 mmHg 88%
    03:00 +20°C° 0.2 mm 2 mps 746 mmHg 88%
    04:00 +20°C° 0.2 mm 2 mps 746 mmHg 89%
    05:00 +20°C° 0.7 mm 2 mps 746 mmHg 88%
    06:00 +21°C° 0.7 mm 2 mps 746 mmHg 87%
    07:00 +21°C° 0.7 mm 2 mps 747 mmHg 86%
    08:00 +23°C° 0.3 mm 1 mps 747 mmHg 85%
    09:00 +24°C° 0.3 mm 1 mps 747 mmHg 83%
    10:00 +24°C° 0.3 mm 1 mps 747 mmHg 81%
    11:00 +25°C° 1.9 mm 1 mps 747 mmHg 77%
    12:00 +26°C° 1.9 mm 1 mps 747 mmHg 74%
    13:00 +27°C° 1.9 mm 1 mps 747 mmHg 70%
    14:00 +27°C° 0.5 mm 1 mps 747 mmHg 71%
    15:00 +27°C° 0.5 mm 2 mps 747 mmHg 71%
    16:00 +27°C° 0.5 mm 2 mps 747 mmHg 71%
    17:00 +26°C° 0.2 mm 2 mps 747 mmHg 74%
    18:00 +25°C° 0.2 mm 2 mps 748 mmHg 77%
    19:00 +24°C° 0.2 mm 2 mps 748 mmHg 80%
    20:00 +23°C° 0.2 mm 2 mps 748 mmHg 80%
    21:00 +22°C° 0.2 mm 3 mps 749 mmHg 80%
    22:00 +21°C° 0.2 mm 3 mps 749 mmHg 79%
    23:00 +21°C° 0 mm 3 mps 749 mmHg 82%

    24 June, Monday

    Time Temperature Precipitation Wind Pressure Humidity
    00:00 +20°C° 0 mm 2 mps 749 mmHg 85%
    01:00 +20°C° 0 mm 2 mps 749 mmHg 87%
    02:00 +20°C° 0 mm 2 mps 749 mmHg 88%
    03:00 +19°C° 0 mm 2 mps 749 mmHg 88%
    04:00 +19°C° 0 mm 2 mps 749 mmHg 88%
    05:00 +20°C° 0 mm 2 mps 750 mmHg 84%
    06:00 +21°C° 0 mm 2 mps 750 mmHg 81%
    07:00 +23°C° 0 mm 2 mps 750 mmHg 78%
    08:00 +24°C° 0 mm 2 mps 751 mmHg 73%
    09:00 +26°C° 0 mm 2 mps 751 mmHg 69%
    10:00 +27°C° 0 mm 2 mps 751 mmHg 64%
    11:00 +28°C° 0 mm 2 mps 751 mmHg 62%
    12:00 +29°C° 0 mm 2 mps 751 mmHg 59%
    13:00 +30°C° 0 mm 2 mps 751 mmHg 56%
    14:00 +30°C° 0.1 mm 2 mps 751 mmHg 57%
    15:00 +30°C° 0.1 mm 2 mps 751 mmHg 57%
    16:00 +30°C° 0.1 mm 2 mps 751 mmHg 58%
    17:00 +28°C° 0.2 mm 2 mps 751 mmHg 64%
    18:00 +27°C° 0.2 mm 2 mps 751 mmHg 69%
    19:00 +26°C° 0.2 mm 2 mps 751 mmHg 75%
    20:00 +25°C° 0 mm 2 mps 752 mmHg 76%
    21:00 +24°C° 0 mm 2 mps 752 mmHg 77%
    22:00 +23°C° 0 mm 1 mps 752 mmHg 77%
    23:00 +22°C° 0 mm 1 mps 752 mmHg 78%

    25 June, Tuesday

    Time Temperature Precipitation Wind Pressure Humidity
    00:00 +21°C° 0 mm 2 mps 752 mmHg 78%
    01:00 +21°C° 0 mm 2 mps 752 mmHg 79%
    02:00 +20°C° 0 mm 2 mps 752 mmHg 80%
    03:00 +20°C° 0 mm 2 mps 752 mmHg 82%
    04:00 +20°C° 0 mm 2 mps 752 mmHg 84%
    05:00 +21°C° 0 mm 2 mps 753 mmHg 81%
    06:00 +23°C° 0 mm 2 mps 753 mmHg 78%
    07:00 +24°C° 0 mm 2 mps 753 mmHg 74%
    08:00 +26°C° 0 mm 2 mps 753 mmHg 69%
    09:00 +27°C° 0 mm 2 mps 753 mmHg 64%
    10:00 +29°C° 0 mm 2 mps 754 mmHg 59%
    11:00 +30°C° 0 mm 2 mps 753 mmHg 57%
    12:00 +30°C° 0 mm 2 mps 753 mmHg 55%
    13:00 +31°C° 0 mm 3 mps 753 mmHg 53%
    14:00 +31°C° 0 mm 2 mps 753 mmHg 54%
    15:00 +31°C° 0 mm 2 mps 753 mmHg 54%
    16:00 +31°C° 0 mm 2 mps 753 mmHg 55%
    17:00 +30°C° 0 mm 2 mps 753 mmHg 61%
    18:00 +28°C° 0 mm 2 mps 753 mmHg 68%
    19:00 +27°C° 0 mm 2 mps 753 mmHg 74%
    20:00 +26°C° 0 mm 2 mps 754 mmHg 76%
    21:00 +25°C° 0 mm 1 mps 754 mmHg 79%
    22:00 +23°C° 0 mm 1 mps 754 mmHg 82%
    23:00 +23°C° 0 mm 1 mps 754 mmHg 80%
    Show more